• In United Kingdom
  • List of Countries
  • For 7 days
  • Water Temperature
  • Satellite Maps
  • Weather Map
  • Weather Widgets
  • user-avatar
    Login

    Hourly Weather Inhambane

    Today, 17 August, Thursday

    Time Temperature Precipitation Wind Pressure Humidity
    00:00 +35°C° 0 mm 2 mps 717 mmHg 34%
    01:00 +33°C° 0 mm 1 mps 717 mmHg 37%
    02:00 +32°C° 0 mm 1 mps 717 mmHg 39%
    03:00 +32°C° 0 mm 1 mps 717 mmHg 39%
    04:00 +31°C° 0 mm 1 mps 717 mmHg 39%
    05:00 +31°C° 0 mm 1 mps 717 mmHg 38%
    06:00 +32°C° 0 mm 1 mps 717 mmHg 35%
    07:00 +34°C° 0 mm 1 mps 718 mmHg 31%
    08:00 +35°C° 0 mm 1 mps 718 mmHg 28%
    09:00 +37°C° 0 mm 2 mps 718 mmHg 25%
    10:00 +39°C° 0 mm 2 mps 718 mmHg 23%
    11:00 +40°C° 0 mm 2 mps 718 mmHg 21%
    12:00 +40°C° 0 mm 3 mps 718 mmHg 21%
    13:00 +42°C° 0 mm 3 mps 718 mmHg 20%
    14:00 +42°C° 0 mm 3 mps 717 mmHg 20%
    15:00 +42°C° 0 mm 3 mps 717 mmHg 22%
    16:00 +40°C° 0 mm 3 mps 717 mmHg 24%
    17:00 +39°C° 0 mm 3 mps 717 mmHg 26%
    18:00 +38°C° 0 mm 3 mps 717 mmHg 30%
    19:00 +37°C° 0 mm 2 mps 717 mmHg 34%
    20:00 +36°C° 0 mm 2 mps 717 mmHg 38%
    21:00 +35°C° 0 mm 2 mps 717 mmHg 40%
    22:00 +34°C° 0 mm 2 mps 717 mmHg 42%
    23:00 +33°C° 0 mm 1 mps 718 mmHg 43%

    Tomorrow, 18 August, Friday

    Time Temperature Precipitation Wind Pressure Humidity
    00:00 +33°C° 0 mm 1 mps 718 mmHg 44%
    01:00 +33°C° 0 mm 1 mps 718 mmHg 44%
    02:00 +33°C° 0 mm 1 mps 717 mmHg 44%
    03:00 +32°C° 0 mm 1 mps 718 mmHg 44%
    04:00 +32°C° 0 mm 1 mps 718 mmHg 43%
    05:00 +29°C° 0 mm 0 mps 718 mmHg 43%
    06:00 +33°C° 0 mm 1 mps 718 mmHg 39%
    07:00 +34°C° 0 mm 1 mps 719 mmHg 35%
    08:00 +35°C° 0 mm 1 mps 720 mmHg 31%
    09:00 +37°C° 0 mm 1 mps 720 mmHg 27%
    10:00 +39°C° 0 mm 2 mps 720 mmHg 23%
    11:00 +41°C° 0 mm 2 mps 720 mmHg 19%
    12:00 +42°C° 0 mm 3 mps 720 mmHg 19%
    13:00 +42°C° 0 mm 3 mps 719 mmHg 19%
    14:00 +43°C° 0 mm 3 mps 718 mmHg 19%
    15:00 +42°C° 0 mm 3 mps 718 mmHg 21%
    16:00 +40°C° 0 mm 3 mps 718 mmHg 23%
    17:00 +40°C° 0 mm 3 mps 718 mmHg 24%
    18:00 +39°C° 0 mm 3 mps 718 mmHg 27%
    19:00 +38°C° 0 mm 2 mps 718 mmHg 30%
    20:00 +37°C° 0 mm 2 mps 719 mmHg 32%
    21:00 +36°C° 0 mm 2 mps 719 mmHg 33%
    22:00 +36°C° 0 mm 2 mps 719 mmHg 35%
    23:00 +34°C° 0 mm 1 mps 719 mmHg 36%

    Day after tomorrow, 19 August, Saturday

    Time Temperature Precipitation Wind Pressure Humidity
    00:00 +34°C° 0 mm 1 mps 719 mmHg 35%
    01:00 +34°C° 0 mm 1 mps 718 mmHg 35%
    02:00 +34°C° 0 mm 1 mps 718 mmHg 35%
    03:00 +34°C° 0 mm 1 mps 718 mmHg 36%
    04:00 +33°C° 0 mm 1 mps 718 mmHg 37%
    05:00 +33°C° 0 mm 1 mps 718 mmHg 38%
    06:00 +34°C° 0 mm 1 mps 719 mmHg 34%
    07:00 +36°C° 0 mm 2 mps 719 mmHg 29%
    08:00 +38°C° 0 mm 2 mps 720 mmHg 25%
    09:00 +40°C° 0 mm 3 mps 720 mmHg 22%
    10:00 +42°C° 0 mm 4 mps 720 mmHg 18%
    11:00 +44°C° 0 mm 4 mps 720 mmHg 14%
    12:00 +46°C° 0 mm 5 mps 719 mmHg 14%
    13:00 +46°C° 0 mm 5 mps 719 mmHg 14%
    14:00 +46°C° 0 mm 6 mps 718 mmHg 13%
    15:00 +46°C° 0 mm 6 mps 718 mmHg 14%
    16:00 +45°C° 0 mm 6 mps 718 mmHg 15%
    17:00 +44°C° 0 mm 6 mps 718 mmHg 16%
    18:00 +42°C° 0 mm 5 mps 718 mmHg 18%
    19:00 +41°C° 0 mm 4 mps 718 mmHg 20%
    20:00 +38°C° 0 mm 3 mps 719 mmHg 23%
    21:00 +38°C° 0 mm 3 mps 719 mmHg 22%
    22:00 +37°C° 0 mm 3 mps 719 mmHg 21%
    23:00 +37°C° 0 mm 3 mps 719 mmHg 20%

    20 August, Sunday

    Time Temperature Precipitation Wind Pressure Humidity
    00:00 +37°C° 0 mm 3 mps 718 mmHg 19%
    01:00 +37°C° 0 mm 3 mps 718 mmHg 18%
    02:00 +36°C° 0 mm 4 mps 718 mmHg 17%
    03:00 +36°C° 0 mm 3 mps 718 mmHg 17%
    04:00 +35°C° 0 mm 2 mps 718 mmHg 17%
    05:00 +35°C° 0 mm 2 mps 718 mmHg 18%
    06:00 +36°C° 0 mm 3 mps 718 mmHg 16%
    07:00 +38°C° 0 mm 4 mps 718 mmHg 14%
    08:00 +41°C° 0 mm 4 mps 719 mmHg 12%
    09:00 +43°C° 0 mm 5 mps 719 mmHg 11%
    10:00 +45°C° 0 mm 6 mps 719 mmHg 11%
    11:00 +47°C° 0 mm 6 mps 719 mmHg 10%
    12:00 +47°C° 0 mm 7 mps 718 mmHg 10%
    13:00 +47°C° 0 mm 7 mps 718 mmHg 11%
    14:00 +49°C° 0 mm 7 mps 717 mmHg 11%
    15:00 +47°C° 0 mm 7 mps 717 mmHg 13%
    16:00 +46°C° 0 mm 6 mps 717 mmHg 15%
    17:00 +45°C° 0 mm 6 mps 716 mmHg 17%
    18:00 +43°C° 0 mm 5 mps 717 mmHg 18%
    19:00 +42°C° 0 mm 4 mps 717 mmHg 20%
    20:00 +40°C° 0 mm 4 mps 717 mmHg 21%
    21:00 +39°C° 0 mm 3 mps 717 mmHg 22%
    22:00 +38°C° 0 mm 3 mps 717 mmHg 22%
    23:00 +38°C° 0 mm 3 mps 716 mmHg 22%

    21 August, Monday

    Time Temperature Precipitation Wind Pressure Humidity
    00:00 +37°C° 0 mm 3 mps 716 mmHg 23%
    01:00 +36°C° 0 mm 3 mps 716 mmHg 24%
    02:00 +36°C° 0 mm 3 mps 715 mmHg 25%
    03:00 +36°C° 0 mm 3 mps 716 mmHg 24%
    04:00 +35°C° 0 mm 2 mps 716 mmHg 24%
    05:00 +35°C° 0 mm 2 mps 716 mmHg 23%
    06:00 +36°C° 0 mm 2 mps 717 mmHg 22%
    07:00 +37°C° 0 mm 3 mps 717 mmHg 21%
    08:00 +38°C° 0 mm 3 mps 717 mmHg 20%
    09:00 +40°C° 0 mm 3 mps 717 mmHg 18%
    10:00 +42°C° 0 mm 3 mps 717 mmHg 16%
    11:00 +44°C° 0 mm 4 mps 717 mmHg 14%
    12:00 +45°C° 0 mm 4 mps 717 mmHg 14%
    13:00 +46°C° 0 mm 5 mps 716 mmHg 14%
    14:00 +47°C° 0 mm 5 mps 716 mmHg 14%
    15:00 +46°C° 0 mm 5 mps 716 mmHg 15%
    16:00 +46°C° 0 mm 5 mps 715 mmHg 17%
    17:00 +44°C° 0 mm 4 mps 715 mmHg 18%
    18:00 +43°C° 0 mm 4 mps 715 mmHg 20%
    19:00 +42°C° 0 mm 3 mps 716 mmHg 21%
    20:00 +39°C° 0 mm 3 mps 716 mmHg 23%
    21:00 +39°C° 0 mm 3 mps 716 mmHg 24%
    22:00 +38°C° 0 mm 3 mps 716 mmHg 26%
    23:00 +37°C° 0 mm 3 mps 716 mmHg 27%

    22 August, Tuesday

    Time Temperature Precipitation Wind Pressure Humidity
    00:00 +37°C° 0 mm 3 mps 715 mmHg 27%
    01:00 +37°C° 0 mm 3 mps 715 mmHg 26%
    02:00 +36°C° 0 mm 3 mps 715 mmHg 26%
    03:00 +36°C° 0 mm 2 mps 715 mmHg 27%
    04:00 +35°C° 0 mm 2 mps 715 mmHg 28%
    05:00 +33°C° 0 mm 1 mps 715 mmHg 29%
    06:00 +34°C° 0 mm 1 mps 715 mmHg 26%
    07:00 +37°C° 0 mm 2 mps 716 mmHg 22%
    08:00 +39°C° 0 mm 3 mps 716 mmHg 19%
    09:00 +40°C° 0 mm 3 mps 716 mmHg 18%
    10:00 +43°C° 0 mm 4 mps 716 mmHg 17%
    11:00 +44°C° 0 mm 4 mps 716 mmHg 16%
    12:00 +45°C° 0 mm 4 mps 715 mmHg 16%
    13:00 +46°C° 0 mm 5 mps 715 mmHg 16%
    14:00 +47°C° 0 mm 5 mps 714 mmHg 16%
    15:00 +46°C° 0 mm 5 mps 714 mmHg 17%
    16:00 +46°C° 0 mm 5 mps 714 mmHg 19%
    17:00 +45°C° 0 mm 5 mps 714 mmHg 20%
    18:00 +42°C° 0 mm 5 mps 714 mmHg 24%
    19:00 +41°C° 0 mm 5 mps 714 mmHg 29%
    20:00 +39°C° 0 mm 5 mps 714 mmHg 34%
    21:00 +37°C° 0 mm 4 mps 714 mmHg 33%
    22:00 +37°C° 0 mm 3 mps 714 mmHg 33%
    23:00 +37°C° 0 mm 3 mps 714 mmHg 33%
    Show more